| time (UTC) | temp F | wind direction | speed knots | gust knots | rain 1hr in | rain 24hr in | rain mn in | humidity % | barometer mb |
| 20260504044523 | 55 | 30 | 0.0 | 0.0 | 0.00 | 0.00 | 0.00 | 87 | 1018.5 |
| 20260504043022 | 54 | 360 | 0.0 | 0.9 | 0.00 | 0.00 | 0.00 | 87 | 1018.3 |
| 20260504041520 | 54 | 360 | 0.0 | 0.9 | 0.00 | 0.00 | 0.00 | 86 | 1018.3 |
| 20260504040019 | 54 | 360 | 0.0 | 1.7 | 0.00 | 0.00 | 0.00 | 86 | 1018.2 |
| 20260504034518 | 54 | 360 | 0.0 | 0.0 | 0.00 | 0.00 | 0.00 | 85 | 1018.1 |
| 20260504033017 | 55 | 360 | 0.0 | 0.0 | 0.00 | 0.00 | 0.00 | 84 | 1018.2 |
| 20260504031516 | 55 | 360 | 0.0 | 0.0 | 0.00 | 0.00 | 0.00 | 84 | 1018.1 |
| 20260504030015 | 55 | 360 | 0.0 | 0.9 | 0.00 | 0.00 | 0.00 | 84 | 1018.0 |
| 20260504024512 | 56 | 360 | 0.0 | 1.7 | 0.00 | 0.00 | 0.00 | 83 | 1018.1 |
| 20260504023012 | 56 | 360 | 0.0 | 1.7 | 0.00 | 0.00 | 0.00 | 83 | 1018.1 |
| 20260504021510 | 56 | 360 | 0.9 | 2.6 | 0.00 | 0.00 | 0.00 | 84 | 1018.2 |
| 20260504020012 | 56 | 360 | 0.0 | 2.6 | 0.00 | 0.00 | 0.00 | 85 | 1018.2 |
| 20260504014508 | 56 | 360 | 0.0 | 1.7 | 0.00 | 0.00 | 0.00 | 85 | 1018.1 |
| 20260504013012 | 57 | 360 | 0.0 | 0.9 | 0.00 | 0.00 | 0.00 | 84 | 1018.1 |
| 20260504011506 | 57 | 360 | 0.0 | 0.0 | 0.00 | 0.00 | 0.00 | 84 | 1018.1 |
| 20260504010005 | 57 | 360 | 0.0 | 0.0 | 0.00 | 0.00 | 0.00 | 84 | 1018.1 |
| 20260504004506 | 57 | 360 | 0.0 | 0.9 | 0.00 | 0.00 | 0.00 | 85 | 1018.1 |
| 20260504003004 | 57 | 360 | 0.0 | 0.9 | 0.00 | 0.00 | 0.00 | 85 | 1018.1 |
| 20260504001502 | 57 | 360 | 0.0 | 0.9 | 0.00 | 0.00 | 0.00 | 85 | 1018.2 |
| 20260504000001 | 57 | 360 | 0.0 | 0.0 | 0.00 | 0.00 | 0.00 | 85 | 1018.2 |
| 20260503234559 | 58 | 360 | 0.0 | 0.0 | 0.00 | 0.00 | 0.00 | 85 | 1018.2 |
| 20260503233103 | 58 | 360 | 0.0 | 0.9 | 0.00 | 0.00 | 0.00 | 85 | 1018.2 |
| 20260503231557 | 58 | 360 | 0.0 | 1.7 | 0.00 | 0.00 | 0.00 | 84 | 1018.2 |
| 20260503230058 | 59 | 360 | 0.0 | 0.9 | 0.00 | 0.00 | 0.00 | 84 | 1018.5 |
| 20260503224554 | 59 | 360 | 0.0 | 0.9 | 0.00 | 0.00 | 0.00 | 84 | 1018.5 |
| 20260503223053 | 59 | 360 | 0.0 | 1.7 | 0.00 | 0.00 | 0.00 | 84 | 1018.4 |
| 20260503221558 | 59 | 360 | 0.0 | 1.7 | 0.00 | 0.00 | 0.00 | 84 | 1018.3 |
| 20260503220100 | 59 | 360 | 0.0 | 1.7 | 0.00 | 0.00 | 0.00 | 83 | 1018.2 |
| 20260503214551 | 59 | 360 | 0.0 | 3.5 | 0.00 | 0.00 | 0.00 | 83 | 1018.1 |
| 20260503213049 | 59 | 360 | 0.0 | 2.6 | 0.00 | 0.00 | 0.00 | 84 | 1018.0 |
| 20260503211547 | 59 | 360 | 0.0 | 2.6 | 0.00 | 0.00 | 0.00 | 84 | 1018.1 |
| 20260503210053 | 60 | 360 | 0.9 | 2.6 | 0.00 | 0.00 | 0.00 | 83 | 1018.0 |
| 20260503204558 | 60 | 360 | 0.0 | 2.6 | 0.00 | 0.00 | 0.00 | 83 | 1018.0 |
| 20260503203046 | 60 | 360 | 0.0 | 2.6 | 0.00 | 0.00 | 0.00 | 83 | 1017.9 |
| 20260503201544 | 60 | 360 | 0.0 | 0.9 | 0.00 | 0.00 | 0.00 | 83 | 1017.9 |
| 20260503200046 | 60 | 360 | 0.0 | 1.7 | 0.00 | 0.00 | 0.00 | 83 | 1017.9 |
| 20260503194550 | 60 | 360 | 0.0 | 1.7 | 0.00 | 0.00 | 0.00 | 82 | 1017.9 |
| 20260503193043 | 61 | 360 | 0.0 | 0.0 | 0.00 | 0.00 | 0.00 | 80 | 1017.9 |
| 20260503191543 | 61 | 360 | 0.0 | 0.9 | 0.00 | 0.00 | 0.00 | 80 | 1017.5 |
| 20260503190046 | 62 | 360 | 0.0 | 1.7 | 0.00 | 0.00 | 0.00 | 79 | 1017.5 |
| 20260503184540 | 62 | 360 | 0.0 | 0.9 | 0.00 | 0.00 | 0.00 | 78 | 1017.4 |
| 20260503183042 | 63 | 360 | 0.0 | 2.6 | 0.00 | 0.00 | 0.00 | 77 | 1017.2 |
| 20260503181538 | 63 | 360 | 0.9 | 2.6 | 0.00 | 0.00 | 0.00 | 74 | 1017.2 |
| 20260503180037 | 64 | 360 | 0.0 | 1.7 | 0.00 | 0.00 | 0.00 | 72 | 1017.0 |
| 20260503174535 | 65 | 360 | 0.0 | 1.7 | 0.00 | 0.00 | 0.00 | 70 | 1016.8 |
| 20260503173056 | 67 | 360 | 0.9 | 2.6 | 0.00 | 0.00 | 0.00 | 67 | 1016.7 |
| 20260503171535 | 68 | 114 | 0.9 | 3.5 | 0.00 | 0.00 | 0.00 | 63 | 1016.7 |
| 20260503081551 | 64 | 261 | 2.6 | 7.0 | 0.00 | 0.00 | 0.00 | 59 | 1019.7 |
| 20260503071541 | 62 | 205 | 0.9 | 3.5 | 0.00 | 0.00 | 0.00 | 61 | 1020.0 |
| 20260503054626 | 57 | 360 | 0.0 | 1.7 | 0.00 | 0.00 | 0.00 | 69 | 1020.0 |
| 20260503053026 | 55 | 15 | 0.0 | 1.7 | 0.00 | 0.00 | 0.00 | 69 | 1020.0 |